This is the latest recevied weather packets stored in our database for station/object K5SVV. If no packets are shown the sender has not sent any weather packets the latest 10 day(s).
| Time | Temp. | Humidity | Pressure | Rain* | Wind** | Luminosity | Snow |
|---|---|---|---|---|---|---|---|
| 1777914603 | 23.33° C | 67% | 1011.7 hPa | 0 mm | - | 788 W/m² | - |
| 1777914299 | 23.33° C | 65% | 1011.7 hPa | 0 mm | - | 751 W/m² | - |
| 1777913997 | 23.89° C | 65% | 1011.9 hPa | 0 mm | - | 775 W/m² | - |
| 1777913693 | 22.78° C | 65% | 1012 hPa | 0 mm | - | 748 W/m² | - |
| 1777913390 | 22.78° C | 64% | 1012.1 hPa | 0 mm | - | 733 W/m² | - |
| 1777913086 | 22.78° C | 65% | 1012 hPa | 0 mm | - | 790 W/m² | - |
| 1777912783 | 22.78° C | 67% | 1012.1 hPa | 0 mm | - | 775 W/m² | - |
| 1777912479 | 22.22° C | 68% | 1012.2 hPa | 0 mm | - | 769 W/m² | - |
| 1777912175 | 22.22° C | 67% | 1012.3 hPa | 0 mm | - | 770 W/m² | - |
| 1777911872 | 22.78° C | 67% | 1012.6 hPa | 0 mm | - | 744 W/m² | - |
| 1777911568 | 22.22° C | 67% | 1012.5 hPa | 0 mm | - | 742 W/m² | - |
| 1777911264 | 22.22° C | 67% | 1012.2 hPa | 0 mm | - | 744 W/m² | - |
| 1777910961 | 22.22° C | 67% | 1012.4 hPa | 0 mm | - | 807 W/m² | - |
| 1777910660 | 21.67° C | 67% | 1012.4 hPa | 0 mm | - | 820 W/m² | - |
| 1777910355 | 21.67° C | 66% | 1012.5 hPa | 0 mm | - | 832 W/m² | - |
| 1777910052 | 21.67° C | 68% | 1012.4 hPa | 0 mm | - | 883 W/m² | - |
| 1777909750 | 21.67° C | 68% | 1012.2 hPa | 0 mm | - | 833 W/m² | - |
| 1777909446 | 21.11° C | 69% | 1012.8 hPa | 0 mm | - | 778 W/m² | - |
| 1777909144 | 21.11° C | 69% | 1012.6 hPa | 0 mm | - | 723 W/m² | - |
| 1777908842 | 21.11° C | 71% | 1012.5 hPa | 0 mm | - | 788 W/m² | - |
| 1777908539 | 21.11° C | 70% | 1012.5 hPa | 0 mm | - | 810 W/m² | - |
| 1777908236 | 21.11° C | 72% | 1012.6 hPa | 0 mm | - | 732 W/m² | - |
| 1777907932 | 20.56° C | 71% | 1012.8 hPa | 0 mm | - | 721 W/m² | - |
| 1777907628 | 20.56° C | 72% | 1012.4 hPa | 0 mm | - | 721 W/m² | - |
| 1777907323 | 20.56° C | 72% | 1013 hPa | 0 mm | - | 677 W/m² | - |
* Rain latest hour (hover to see other rain measurements)
** Current wind speed in m/s (hover to see current wind gust speed)